Data supplied by UK-AIR on 28/6/2011
All Data GMT hour ending  NB:  Upto 03/09/2010 PM10 were measured with a Standard TEOM, from 01/01/2009 PM10 were measured with a VCM TEOM
Status: R =Ratified P=Provisional,P*=As supplied
,,Armagh Roadside,,,,,,,,,,,,,,,,,,,,,,,
Date,time,"PM<sub>10</sub> particulate matter (Hourly measured)",status,unit,"Nitric oxide",status,unit,"Nitrogen dioxide",status,unit,"Nitrogen oxides as nitrogen dioxide",status,unit,"Non-volatile PM<sub>10</sub> (Hourly measured)",status,unit,"Volatile PM<sub>10</sub> (Hourly measured)",status,unit
 
01-01-2010,01:00,65,R,ugm-3 (VCM),,,,,,,,,,,,,,,
01-01-2010,02:00,69,R,ugm-3 (VCM),,,,,,,,,,,,,,,
01-01-2010,03:00,57,R,ugm-3 (VCM),,,,,,,,,,,,,,,
01-01-2010,04:00,37,R,ugm-3 (VCM),,,,,,,,,,,,,,,
01-01-2010,05:00,35,R,ugm-3 (VCM),,,,,,,,,,,,,,,
01-01-2010,06:00,22,R,ugm-3 (VCM),,,,,,,,,,,,,,,
01-01-2010,07:00,21,R,ugm-3 (VCM),,,,,,,,,,,,,,,
01-01-2010,08:00,18,R,ugm-3 (VCM),,,,,,,,,,,,,,,
01-01-2010,09:00,19,R,ugm-3 (VCM),,,,,,,,,,,,,,,
01-01-2010,10:00,19,R,ugm-3 (VCM),,,,,,,,,,,,,,,
01-01-2010,11:00,23,R,ugm-3 (VCM),,,,,,,,,,,,,,,
01-01-2010,12:00,30,R,ugm-3 (VCM),,,,,,,,,,,,,,,
01-01-2010,13:00,44,R,ugm-3 (VCM),,,,,,,,,,,,,,,
01-01-2010,14:00,24,R,ugm-3 (VCM),,,,,,,,,,,,,,,
01-01-2010,15:00,29,R,ugm-3 (VCM),,,,,,,,,,,,,,,
01-01-2010,16:00,54,R,ugm-3 (VCM),,,,,,,,,,,,,,,
01-01-2010,17:00,75,R,ugm-3 (VCM),,,,,,,,,,,,,,,
01-01-2010,18:00,82,R,ugm-3 (VCM),,,,,,,,,,,,,,,
01-01-2010,19:00,104,R,ugm-3 (VCM),,,,,,,,,,,,,,,
01-01-2010,20:00,55,R,ugm-3 (VCM),,,,,,,,,,,,,,,
01-01-2010,21:00,72,R,ugm-3 (VCM),,,,,,,,,,,,,,,
01-01-2010,22:00,49,R,ugm-3 (VCM),,,,,,,,,,,,,,,
01-01-2010,23:00,36,R,ugm-3 (VCM),,,,,,,,,,,,,,,
01-01-2010,24:00,47,R,ugm-3 (VCM),,,,,,,,,,,,,,,
02-01-2010,01:00,21,R,ugm-3 (VCM),,,,,,,,,,,,,,,
02-01-2010,02:00,15,R,ugm-3 (VCM),,,,,,,,,,,,,,,
02-01-2010,03:00,13,R,ugm-3 (VCM),,,,,,,,,,,,,,,
02-01-2010,04:00,12,R,ugm-3 (VCM),,,,,,,,,,,,,,,
02-01-2010,05:00,6,R,ugm-3 (VCM),,,,,,,,,,,,,,,
02-01-2010,06:00,6,R,ugm-3 (VCM),,,,,,,,,,,,,,,
02-01-2010,07:00,7,R,ugm-3 (VCM),,,,,,,,,,,,,,,
02-01-2010,08:00,9,R,ugm-3 (VCM),,,,,,,,,,,,,,,
02-01-2010,09:00,8,R,ugm-3 (VCM),,,,,,,,,,,,,,,
02-01-2010,10:00,19,R,ugm-3 (VCM),,,,,,,,,,,,,,,
02-01-2010,11:00,29,R,ugm-3 (VCM),,,,,,,,,,,,,,,
02-01-2010,12:00,31,R,ugm-3 (VCM),,,,,,,,,,,,,,,
02-01-2010,13:00,57,R,ugm-3 (VCM),,,,,,,,,,,,,,,
02-01-2010,14:00,49,R,ugm-3 (VCM),,,,,,,,,,,,,,,
02-01-2010,15:00,49,R,ugm-3 (VCM),,,,,,,,,,,,,,,
02-01-2010,16:00,41,R,ugm-3 (VCM),,,,,,,,,,,,,,,
02-01-2010,17:00,30,R,ugm-3 (VCM),,,,,,,,,,,,,,,
02-01-2010,18:00,37,R,ugm-3 (VCM),,,,,,,,,,,,,,,
02-01-2010,19:00,37,R,ugm-3 (VCM),,,,,,,,,,,,,,,
02-01-2010,20:00,22,R,ugm-3 (VCM),,,,,,,,,,,,,,,
02-01-2010,21:00,15,R,ugm-3 (VCM),,,,,,,,,,,,,,,
02-01-2010,22:00,19,R,ugm-3 (VCM),,,,,,,,,,,,,,,
02-01-2010,23:00,25,R,ugm-3 (VCM),,,,,,,,,,,,,,,
02-01-2010,24:00,31,R,ugm-3 (VCM),,,,,,,,,,,,,,,
03-01-2010,01:00,23,R,ugm-3 (VCM),,,,,,,,,,,,,,,
03-01-2010,02:00,12,R,ugm-3 (VCM),,,,,,,,,,,,,,,
03-01-2010,03:00,10,R,ugm-3 (VCM),,,,,,,,,,,,,,,
03-01-2010,04:00,9,R,ugm-3 (VCM),,,,,,,,,,,,,,,
03-01-2010,05:00,5,R,ugm-3 (VCM),,,,,,,,,,,,,,,
03-01-2010,06:00,5,R,ugm-3 (VCM),,,,,,,,,,,,,,,
03-01-2010,07:00,5,R,ugm-3 (VCM),,,,,,,,,,,,,,,
03-01-2010,08:00,6,R,ugm-3 (VCM),,,,,,,,,,,,,,,
03-01-2010,09:00,7,R,ugm-3 (VCM),,,,,,,,,,,,,,,
03-01-2010,10:00,10,R,ugm-3 (VCM),,,,,,,,,,,,,,,
03-01-2010,11:00,20,R,ugm-3 (VCM),,,,,,,,,,,,,,,
03-01-2010,12:00,20,R,ugm-3 (VCM),,,,,,,,,,,,,,,
03-01-2010,13:00,16,R,ugm-3 (VCM),,,,,,,,,,,,,,,
03-01-2010,14:00,23,R,ugm-3 (VCM),,,,,,,,,,,,,,,
03-01-2010,15:00,19,R,ugm-3 (VCM),,,,,,,,,,,,,,,
03-01-2010,16:00,24,R,ugm-3 (VCM),,,,,,,,,,,,,,,
03-01-2010,17:00,41,R,ugm-3 (VCM),,,,,,,,,,,,,,,
03-01-2010,18:00,32,R,ugm-3 (VCM),,,,,,,,,,,,,,,
03-01-2010,19:00,43,R,ugm-3 (VCM),,,,,,,,,,,,,,,
03-01-2010,20:00,56,R,ugm-3 (VCM),,,,,,,,,,,,,,,
03-01-2010,21:00,95,R,ugm-3 (VCM),,,,,,,,,,,,,,,
03-01-2010,22:00,115,R,ugm-3 (VCM),,,,,,,,,,,,,,,
03-01-2010,23:00,97,R,ugm-3 (VCM),,,,,,,,,,,,,,,
03-01-2010,24:00,72,R,ugm-3 (VCM),,,,,,,,,,,,,,,
04-01-2010,01:00,40,R,ugm-3 (VCM),,,,,,,,,,,,,,,
04-01-2010,02:00,32,R,ugm-3 (VCM),,,,,,,,,,,,,,,
04-01-2010,03:00,29,R,ugm-3 (VCM),,,,,,,,,,,,,,,
04-01-2010,04:00,16,R,ugm-3 (VCM),,,,,,,,,,,,,,,
04-01-2010,05:00,16,R,ugm-3 (VCM),,,,,,,,,,,,,,,
04-01-2010,06:00,17,R,ugm-3 (VCM),,,,,,,,,,,,,,,
04-01-2010,07:00,15,R,ugm-3 (VCM),,,,,,,,,,,,,,,
04-01-2010,08:00,24,R,ugm-3 (VCM),,,,,,,,,,,,,,,
04-01-2010,09:00,40,R,ugm-3 (VCM),,,,,,,,,,,,,,,
04-01-2010,10:00,41,R,ugm-3 (VCM),,,,,,,,,,,,,,,
04-01-2010,11:00,41,R,ugm-3 (VCM),,,,,,,,,,,,,,,
04-01-2010,12:00,40,R,ugm-3 (VCM),,,,,,,,,,,,,,,
04-01-2010,13:00,50,R,ugm-3 (VCM),,,,,,,,,,,,,,,
04-01-2010,14:00,43,R,ugm-3 (VCM),,,,,,,,,,,,,,,
04-01-2010,15:00,37,R,ugm-3 (VCM),,,,,,,,,,,,,,,
04-01-2010,16:00,45,R,ugm-3 (VCM),,,,,,,,,,,,,,,
04-01-2010,17:00,74,R,ugm-3 (VCM),,,,,,,,,,,,,,,
04-01-2010,18:00,55,R,ugm-3 (VCM),,,,,,,,,,,,,,,
04-01-2010,19:00,41,R,ugm-3 (VCM),,,,,,,,,,,,,,,
04-01-2010,20:00,38,R,ugm-3 (VCM),,,,,,,,,,,,,,,
04-01-2010,21:00,31,R,ugm-3 (VCM),,,,,,,,,,,,,,,
04-01-2010,22:00,23,R,ugm-3 (VCM),,,,,,,,,,,,,,,
04-01-2010,23:00,17,R,ugm-3 (VCM),,,,,,,,,,,,,,,
04-01-2010,24:00,14,R,ugm-3 (VCM),,,,,,,,,,,,,,,
05-01-2010,01:00,13,R,ugm-3 (VCM),,,,,,,,,,,,,,,
05-01-2010,02:00,11,R,ugm-3 (VCM),,,,,,,,,,,,,,,
05-01-2010,03:00,10,R,ugm-3 (VCM),,,,,,,,,,,,,,,
05-01-2010,04:00,10,R,ugm-3 (VCM),,,,,,,,,,,,,,,
05-01-2010,05:00,12,R,ugm-3 (VCM),,,,,,,,,,,,,,,
05-01-2010,06:00,10,R,ugm-3 (VCM),,,,,,,,,,,,,,,
05-01-2010,07:00,12,R,ugm-3 (VCM),,,,,,,,,,,,,,,
05-01-2010,08:00,16,R,ugm-3 (VCM),,,,,,,,,,,,,,,
05-01-2010,09:00,17,R,ugm-3 (VCM),,,,,,,,,,,,,,,
05-01-2010,10:00,25,R,ugm-3 (VCM),,,,,,,,,,,,,,,
05-01-2010,11:00,39,R,ugm-3 (VCM),,,,,,,,,,,,,,,
05-01-2010,12:00,56,R,ugm-3 (VCM),,,,,,,,,,,,,,,
05-01-2010,13:00,58,R,ugm-3 (VCM),,,,,,,,,,,,,,,
05-01-2010,14:00,29,R,ugm-3 (VCM),,,,,,,,,,,,,,,
05-01-2010,15:00,25,R,ugm-3 (VCM),,,,,,,,,,,,,,,
05-01-2010,16:00,37,R,ugm-3 (VCM),,,,,,,,,,,,,,,
05-01-2010,17:00,35,R,ugm-3 (VCM),,,,,,,,,,,,,,,
05-01-2010,18:00,38,R,ugm-3 (VCM),,,,,,,,,,,,,,,
05-01-2010,19:00,13,R,ugm-3 (VCM),,,,,,,,,,,,,,,
05-01-2010,20:00,14,R,ugm-3 (VCM),,,,,,,,,,,,,,,
05-01-2010,21:00,13,R,ugm-3 (VCM),,,,,,,,,,,,,,,
05-01-2010,22:00,20,R,ugm-3 (VCM),,,,,,,,,,,,,,,
05-01-2010,23:00,5,R,ugm-3 (VCM),,,,,,,,,,,,,,,
05-01-2010,24:00,8,R,ugm-3 (VCM),,,,,,,,,,,,,,,
06-01-2010,01:00,9,R,ugm-3 (VCM),,,,,,,,,,,,,,,
06-01-2010,02:00,8,R,ugm-3 (VCM),,,,,,,,,,,,,,,
06-01-2010,03:00,10,R,ugm-3 (VCM),,,,,,,,,,,,,,,
06-01-2010,04:00,8,R,ugm-3 (VCM),,,,,,,,,,,,,,,
06-01-2010,05:00,9,R,ugm-3 (VCM),,,,,,,,,,,,,,,
06-01-2010,06:00,10,R,ugm-3 (VCM),,,,,,,,,,,,,,,
06-01-2010,07:00,11,R,ugm-3 (VCM),,,,,,,,,,,,,,,
06-01-2010,08:00,15,R,ugm-3 (VCM),,,,,,,,,,,,,,,
06-01-2010,09:00,13,R,ugm-3 (VCM),,,,,,,,,,,,,,,
06-01-2010,10:00,17,R,ugm-3 (VCM),,,,,,,,,,,,,,,
06-01-2010,11:00,19,R,ugm-3 (VCM),,,,,,,,,,,,,,,
06-01-2010,12:00,13,R,ugm-3 (VCM),,,,,,,,,,,,,,,
06-01-2010,13:00,15,R,ugm-3 (VCM),,,,,,,,,,,,,,,
06-01-2010,14:00,12,R,ugm-3 (VCM),,,,,,,,,,,,,,,
06-01-2010,15:00,16,R,ugm-3 (VCM),,,,,,,,,,,,,,,
06-01-2010,16:00,36,R,ugm-3 (VCM),,,,,,,,,,,,,,,
06-01-2010,17:00,33,R,ugm-3 (VCM),,,,,,,,,,,,,,,
06-01-2010,18:00,43,R,ugm-3 (VCM),,,,,,,,,,,,,,,
06-01-2010,19:00,115,R,ugm-3 (VCM),,,,,,,,,,,,,,,
06-01-2010,20:00,145,R,ugm-3 (VCM),,,,,,,,,,,,,,,
06-01-2010,21:00,111,R,ugm-3 (VCM),,,,,,,,,,,,,,,
06-01-2010,22:00,65,R,ugm-3 (VCM),,,,,,,,,,,,,,,
06-01-2010,23:00,46,R,ugm-3 (VCM),,,,,,,,,,,,,,,
06-01-2010,24:00,28,R,ugm-3 (VCM),,,,,,,,,,,,,,,
07-01-2010,01:00,22,R,ugm-3 (VCM),,,,,,,,,,,,,,,
07-01-2010,02:00,23,R,ugm-3 (VCM),,,,,,,,,,,,,,,
07-01-2010,03:00,17,R,ugm-3 (VCM),,,,,,,,,,,,,,,
07-01-2010,04:00,16,R,ugm-3 (VCM),,,,,,,,,,,,,,,
07-01-2010,05:00,18,R,ugm-3 (VCM),,,,,,,,,,,,,,,
07-01-2010,06:00,16,R,ugm-3 (VCM),,,,,,,,,,,,,,,
07-01-2010,07:00,18,R,ugm-3 (VCM),,,,,,,,,,,,,,,
07-01-2010,08:00,26,R,ugm-3 (VCM),,,,,,,,,,,,,,,
07-01-2010,09:00,50,R,ugm-3 (VCM),,,,,,,,,,,,,,,
07-01-2010,10:00,66,R,ugm-3 (VCM),,,,,,,,,,,,,,,
07-01-2010,11:00,61,R,ugm-3 (VCM),,,,,,,,,,,,,,,
07-01-2010,12:00,73,R,ugm-3 (VCM),,,,,,,,,,,,,,,
07-01-2010,13:00,59,R,ugm-3 (VCM),,,,,,,,,,,,,,,
07-01-2010,14:00,57,R,ugm-3 (VCM),,,,,,,,,,,,,,,
07-01-2010,15:00,79,R,ugm-3 (VCM),,,,,,,,,,,,,,,
07-01-2010,16:00,90,R,ugm-3 (VCM),,,,,,,,,,,,,,,
07-01-2010,17:00,106,R,ugm-3 (VCM),,,,,,,,,,,,,,,
07-01-2010,18:00,88,R,ugm-3 (VCM),,,,,,,,,,,,,,,
07-01-2010,19:00,141,R,ugm-3 (VCM),,,,,,,,,,,,,,,
07-01-2010,20:00,117,R,ugm-3 (VCM),,,,,,,,,,,,,,,
07-01-2010,21:00,54,R,ugm-3 (VCM),,,,,,,,,,,,,,,
07-01-2010,22:00,33,R,ugm-3 (VCM),,,,,,,,,,,,,,,
07-01-2010,23:00,37,R,ugm-3 (VCM),,,,,,,,,,,,,,,
07-01-2010,24:00,30,R,ugm-3 (VCM),,,,,,,,,,,,,,,
08-01-2010,01:00,29,R,ugm-3 (VCM),,,,,,,,,,,,,,,
08-01-2010,02:00,29,R,ugm-3 (VCM),,,,,,,,,,,,,,,
08-01-2010,03:00,47,R,ugm-3 (VCM),,,,,,,,,,,,,,,
08-01-2010,04:00,40,R,ugm-3 (VCM),,,,,,,,,,,,,,,
08-01-2010,05:00,30,R,ugm-3 (VCM),,,,,,,,,,,,,,,
08-01-2010,06:00,28,R,ugm-3 (VCM),,,,,,,,,,,,,,,
08-01-2010,07:00,35,R,ugm-3 (VCM),,,,,,,,,,,,,,,
08-01-2010,08:00,22,R,ugm-3 (VCM),,,,,,,,,,,,,,,
08-01-2010,09:00,20,R,ugm-3 (VCM),,,,,,,,,,,,,,,
08-01-2010,10:00,41,R,ugm-3 (VCM),,,,,,,,,,,,,,,
08-01-2010,11:00,51,R,ugm-3 (VCM),,,,,,,,,,,,,,,
08-01-2010,12:00,64,R,ugm-3 (VCM),,,,,,,,,,,,,,,
08-01-2010,13:00,81,R,ugm-3 (VCM),,,,,,,,,,,,,,,
08-01-2010,14:00,34,R,ugm-3 (VCM),,,,,,,,,,,,,,,
08-01-2010,15:00,34,R,ugm-3 (VCM),,,,,,,,,,,,,,,
08-01-2010,16:00,66,R,ugm-3 (VCM),,,,,,,,,,,,,,,
08-01-2010,17:00,174,R,ugm-3 (VCM),,,,,,,,,,,,,,,
08-01-2010,18:00,206,R,ugm-3 (VCM),,,,,,,,,,,,,,,
08-01-2010,19:00,208,R,ugm-3 (VCM),,,,,,,,,,,,,,,
08-01-2010,20:00,225,R,ugm-3 (VCM),,,,,,,,,,,,,,,
08-01-2010,21:00,230,R,ugm-3 (VCM),,,,,,,,,,,,,,,
08-01-2010,22:00,115,R,ugm-3 (VCM),,,,,,,,,,,,,,,
08-01-2010,23:00,62,R,ugm-3 (VCM),,,,,,,,,,,,,,,
08-01-2010,24:00,27,R,ugm-3 (VCM),,,,,,,,,,,,,,,
09-01-2010,01:00,39,R,ugm-3 (VCM),,,,,,,,,,,,,,,
09-01-2010,02:00,24,R,ugm-3 (VCM),,,,,,,,,,,,,,,
09-01-2010,03:00,15,R,ugm-3 (VCM),,,,,,,,,,,,,,,
09-01-2010,04:00,15,R,ugm-3 (VCM),,,,,,,,,,,,,,,
09-01-2010,05:00,18,R,ugm-3 (VCM),,,,,,,,,,,,,,,
09-01-2010,06:00,14,R,ugm-3 (VCM),,,,,,,,,,,,,,,
09-01-2010,07:00,13,R,ugm-3 (VCM),,,,,,,,,,,,,,,
09-01-2010,08:00,16,R,ugm-3 (VCM),,,,,,,,,,,,,,,
09-01-2010,09:00,20,R,ugm-3 (VCM),,,,,,,,,,,,,,,
09-01-2010,10:00,41,R,ugm-3 (VCM),,,,,,,,,,,,,,,
09-01-2010,11:00,54,R,ugm-3 (VCM),,,,,,,,,,,,,,,
09-01-2010,12:00,34,R,ugm-3 (VCM),,,,,,,,,,,,,,,
09-01-2010,13:00,46,R,ugm-3 (VCM),,,,,,,,,,,,,,,
09-01-2010,14:00,46,R,ugm-3 (VCM),,,,,,,,,,,,,,,
09-01-2010,15:00,55,R,ugm-3 (VCM),,,,,,,,,,,,,,,
09-01-2010,16:00,56,R,ugm-3 (VCM),,,,,,,,,,,,,,,
09-01-2010,17:00,59,R,ugm-3 (VCM),,,,,,,,,,,,,,,
09-01-2010,18:00,91,R,ugm-3 (VCM),,,,,,,,,,,,,,,
09-01-2010,19:00,102,R,ugm-3 (VCM),,,,,,,,,,,,,,,
09-01-2010,20:00,115,R,ugm-3 (VCM),,,,,,,,,,,,,,,
09-01-2010,21:00,300,R,ugm-3 (VCM),,,,,,,,,,,,,,,
09-01-2010,22:00,233,R,ugm-3 (VCM),,,,,,,,,,,,,,,
09-01-2010,23:00,208,R,ugm-3 (VCM),,,,,,,,,,,,,,,
09-01-2010,24:00,213,R,ugm-3 (VCM),,,,,,,,,,,,,,,
10-01-2010,01:00,154,R,ugm-3 (VCM),,,,,,,,,,,,,,,
10-01-2010,02:00,92,R,ugm-3 (VCM),,,,,,,,,,,,,,,
10-01-2010,03:00,62,R,ugm-3 (VCM),,,,,,,,,,,,,,,
10-01-2010,04:00,36,R,ugm-3 (VCM),,,,,,,,,,,,,,,
10-01-2010,05:00,39,R,ugm-3 (VCM),,,,,,,,,,,,,,,
10-01-2010,06:00,17,R,ugm-3 (VCM),,,,,,,,,,,,,,,
10-01-2010,07:00,18,R,ugm-3 (VCM),,,,,,,,,,,,,,,
10-01-2010,08:00,20,R,ugm-3 (VCM),,,,,,,,,,,,,,,
10-01-2010,09:00,13,R,ugm-3 (VCM),,,,,,,,,,,,,,,
10-01-2010,10:00,2,R,ugm-3 (VCM),,,,,,,,,,,,,,,
10-01-2010,11:00,6,R,ugm-3 (VCM),,,,,,,,,,,,,,,
10-01-2010,12:00,10,R,ugm-3 (VCM),,,,,,,,,,,,,,,
10-01-2010,13:00,10,R,ugm-3 (VCM),,,,,,,,,,,,,,,
10-01-2010,14:00,15,R,ugm-3 (VCM),,,,,,,,,,,,,,,
10-01-2010,15:00,21,R,ugm-3 (VCM),,,,,,,,,,,,,,,
10-01-2010,16:00,18,R,ugm-3 (VCM),,,,,,,,,,,,,,,
10-01-2010,17:00,23,R,ugm-3 (VCM),,,,,,,,,,,,,,,
10-01-2010,18:00,21,R,ugm-3 (VCM),,,,,,,,,,,,,,,
10-01-2010,19:00,22,R,ugm-3 (VCM),,,,,,,,,,,,,,,
10-01-2010,20:00,20,R,ugm-3 (VCM),,,,,,,,,,,,,,,
10-01-2010,21:00,17,R,ugm-3 (VCM),,,,,,,,,,,,,,,
10-01-2010,22:00,18,R,ugm-3 (VCM),,,,,,,,,,,,,,,
10-01-2010,23:00,10,R,ugm-3 (VCM),,,,,,,,,,,,,,,
10-01-2010,24:00,11,R,ugm-3 (VCM),,,,,,,,,,,,,,,
11-01-2010,01:00,7,R,ugm-3 (VCM),,,,,,,,,,,,,,,
11-01-2010,02:00,4,R,ugm-3 (VCM),,,,,,,,,,,,,,,
11-01-2010,03:00,4,R,ugm-3 (VCM),,,,,,,,,,,,,,,
11-01-2010,04:00,4,R,ugm-3 (VCM),,,,,,,,,,,,,,,
11-01-2010,05:00,3,R,ugm-3 (VCM),,,,,,,,,,,,,,,
11-01-2010,06:00,2,R,ugm-3 (VCM),,,,,,,,,,,,,,,
11-01-2010,07:00,5,R,ugm-3 (VCM),,,,,,,,,,,,,,,
11-01-2010,08:00,4,R,ugm-3 (VCM),,,,,,,,,,,,,,,
11-01-2010,09:00,4,R,ugm-3 (VCM),,,,,,,,,,,,,,,
11-01-2010,10:00,9,R,ugm-3 (VCM),,,,,,,,,,,,,,,
11-01-2010,11:00,9,R,ugm-3 (VCM),,,,,,,,,,,,,,,
11-01-2010,12:00,7,R,ugm-3 (VCM),,,,,,,,,,,,,,,
11-01-2010,13:00,7,R,ugm-3 (VCM),,,,,,,,,,,,,,,
11-01-2010,14:00,12,R,ugm-3 (VCM),,,,,,,,,,,,,,,
11-01-2010,15:00,18,R,ugm-3 (VCM),,,,,,,,,,,,,,,
11-01-2010,16:00,14,R,ugm-3 (VCM),,,,,,,,,,,,,,,
11-01-2010,17:00,16,R,ugm-3 (VCM),,,,,,,,,,,,,,,
11-01-2010,18:00,30,R,ugm-3 (VCM),,,,,,,,,,,,,,,
11-01-2010,19:00,34,R,ugm-3 (VCM),,,,,,,,,,,,,,,
11-01-2010,20:00,27,R,ugm-3 (VCM),,,,,,,,,,,,,,,
11-01-2010,21:00,40,R,ugm-3 (VCM),,,,,,,,,,,,,,,
11-01-2010,22:00,25,R,ugm-3 (VCM),,,,,,,,,,,,,,,
11-01-2010,23:00,21,R,ugm-3 (VCM),,,,,,,,,,,,,,,
11-01-2010,24:00,13,R,ugm-3 (VCM),,,,,,,,,,,,,,,
12-01-2010,01:00,8,R,ugm-3 (VCM),,,,,,,,,,,,,,,
12-01-2010,02:00,10,R,ugm-3 (VCM),,,,,,,,,,,,,,,
12-01-2010,03:00,9,R,ugm-3 (VCM),,,,,,,,,,,,,,,
12-01-2010,04:00,9,R,ugm-3 (VCM),,,,,,,,,,,,,,,
12-01-2010,05:00,11,R,ugm-3 (VCM),,,,,,,,,,,,,,,
12-01-2010,06:00,13,R,ugm-3 (VCM),,,,,,,,,,,,,,,
12-01-2010,07:00,13,R,ugm-3 (VCM),,,,,,,,,,,,,,,
12-01-2010,08:00,14,R,ugm-3 (VCM),,,,,,,,,,,,,,,
12-01-2010,09:00,17,R,ugm-3 (VCM),,,,,,,,,,,,,,,
12-01-2010,10:00,16,R,ugm-3 (VCM),,,,,,,,,,,,,,,
12-01-2010,11:00,18,R,ugm-3 (VCM),,,,,,,,,,,,,,,
12-01-2010,12:00,17,R,ugm-3 (VCM),,,,,,,,,,,,,,,
12-01-2010,13:00,18,R,ugm-3 (VCM),,,,,,,,,,,,,,,
12-01-2010,14:00,18,R,ugm-3 (VCM),,,,,,,,,,,,,,,
12-01-2010,15:00,21,R,ugm-3 (VCM),,,,,,,,,,,,,,,
12-01-2010,16:00,,,,,,,,,,,,,,,,,,
12-01-2010,17:00,,,,,,,,,,,,,,,,,,
12-01-2010,18:00,20,R,ugm-3 (VCM),,,,,,,,,,,,,,,
12-01-2010,19:00,23,R,ugm-3 (VCM),,,,,,,,,,,,,,,
12-01-2010,20:00,22,R,ugm-3 (VCM),,,,,,,,,,,,,,,
12-01-2010,21:00,26,R,ugm-3 (VCM),,,,,,,,,,,,,,,
12-01-2010,22:00,24,R,ugm-3 (VCM),,,,,,,,,,,,,,,
12-01-2010,23:00,22,R,ugm-3 (VCM),,,,,,,,,,,,,,,
12-01-2010,24:00,27,R,ugm-3 (VCM),,,,,,,,,,,,,,,
13-01-2010,01:00,23,R,ugm-3 (VCM),,,,,,,,,,,,,,,
13-01-2010,02:00,18,R,ugm-3 (VCM),,,,,,,,,,,,,,,
13-01-2010,03:00,17,R,ugm-3 (VCM),,,,,,,,,,,,,,,
13-01-2010,04:00,14,R,ugm-3 (VCM),,,,,,,,,,,,,,,
13-01-2010,05:00,14,R,ugm-3 (VCM),,,,,,,,,,,,,,,
13-01-2010,06:00,14,R,ugm-3 (VCM),,,,,,,,,,,,,,,
13-01-2010,07:00,11,R,ugm-3 (VCM),,,,,,,,,,,,,,,
13-01-2010,08:00,14,R,ugm-3 (VCM),,,,,,,,,,,,,,,
13-01-2010,09:00,20,R,ugm-3 (VCM),,,,,,,,,,,,,,,
13-01-2010,10:00,21,R,ugm-3 (VCM),,,,,,,,,,,,,,,
13-01-2010,11:00,26,R,ugm-3 (VCM),,,,,,,,,,,,,,,
13-01-2010,12:00,17,R,ugm-3 (VCM),,,,,,,,,,,,,,,
13-01-2010,13:00,15,R,ugm-3 (VCM),,,,,,,,,,,,,,,
13-01-2010,14:00,20,R,ugm-3 (VCM),,,,,,,,,,,,,,,
13-01-2010,15:00,22,R,ugm-3 (VCM),,,,,,,,,,,,,,,
13-01-2010,16:00,20,R,ugm-3 (VCM),,,,,,,,,,,,,,,
13-01-2010,17:00,20,R,ugm-3 (VCM),,,,,,,,,,,,,,,
13-01-2010,18:00,24,R,ugm-3 (VCM),,,,,,,,,,,,,,,
13-01-2010,19:00,22,R,ugm-3 (VCM),,,,,,,,,,,,,,,
13-01-2010,20:00,22,R,ugm-3 (VCM),,,,,,,,,,,,,,,
13-01-2010,21:00,23,R,ugm-3 (VCM),,,,,,,,,,,,,,,
13-01-2010,22:00,24,R,ugm-3 (VCM),,,,,,,,,,,,,,,
13-01-2010,23:00,32,R,ugm-3 (VCM),,,,,,,,,,,,,,,
13-01-2010,24:00,25,R,ugm-3 (VCM),,,,,,,,,,,,,,,
14-01-2010,01:00,22,R,ugm-3 (VCM),,,,,,,,,,,,,,,
14-01-2010,02:00,26,R,ugm-3 (VCM),,,,,,,,,,,,,,,
14-01-2010,03:00,23,R,ugm-3 (VCM),,,,,,,,,,,,,,,
14-01-2010,04:00,21,R,ugm-3 (VCM),,,,,,,,,,,,,,,
14-01-2010,05:00,24,R,ugm-3 (VCM),,,,,,,,,,,,,,,
14-01-2010,06:00,26,R,ugm-3 (VCM),,,,,,,,,,,,,,,
14-01-2010,07:00,34,R,ugm-3 (VCM),,,,,,,,,,,,,,,
14-01-2010,08:00,47,R,ugm-3 (VCM),,,,,,,,,,,,,,,
14-01-2010,09:00,48,R,ugm-3 (VCM),,,,,,,,,,,,,,,
14-01-2010,10:00,43,R,ugm-3 (VCM),,,,,,,,,,,,,,,
14-01-2010,11:00,34,R,ugm-3 (VCM),,,,,,,,,,,,,,,
14-01-2010,12:00,43,R,ugm-3 (VCM),,,,,,,,,,,,,,,
14-01-2010,13:00,31,R,ugm-3 (VCM),,,,,,,,,,,,,,,
14-01-2010,14:00,37,R,ugm-3 (VCM),,,,,,,,,,,,,,,
14-01-2010,15:00,34,R,ugm-3 (VCM),,,,,,,,,,,,,,,
14-01-2010,16:00,37,R,ugm-3 (VCM),,,,,,,,,,,,,,,
14-01-2010,17:00,47,R,ugm-3 (VCM),,,,,,,,,,,,,,,
14-01-2010,18:00,32,R,ugm-3 (VCM),,,,,,,,,,,,,,,
14-01-2010,19:00,27,R,ugm-3 (VCM),,,,,,,,,,,,,,,
14-01-2010,20:00,30,R,ugm-3 (VCM),,,,,,,,,,,,,,,
14-01-2010,21:00,29,R,ugm-3 (VCM),,,,,,,,,,,,,,,
14-01-2010,22:00,23,R,ugm-3 (VCM),,,,,,,,,,,,,,,
14-01-2010,23:00,19,R,ugm-3 (VCM),,,,,,,,,,,,,,,
14-01-2010,24:00,18,R,ugm-3 (VCM),,,,,,,,,,,,,,,
15-01-2010,01:00,14,R,ugm-3 (VCM),,,,,,,,,,,,,,,
15-01-2010,02:00,18,R,ugm-3 (VCM),,,,,,,,,,,,,,,
15-01-2010,03:00,19,R,ugm-3 (VCM),,,,,,,,,,,,,,,
15-01-2010,04:00,15,R,ugm-3 (VCM),,,,,,,,,,,,,,,
15-01-2010,05:00,14,R,ugm-3 (VCM),,,,,,,,,,,,,,,
15-01-2010,06:00,13,R,ugm-3 (VCM),,,,,,,,,,,,,,,
15-01-2010,07:00,13,R,ugm-3 (VCM),,,,,,,,,,,,,,,
15-01-2010,08:00,17,R,ugm-3 (VCM),,,,,,,,,,,,,,,
15-01-2010,09:00,25,R,ugm-3 (VCM),,,,,,,,,,,,,,,
15-01-2010,10:00,29,R,ugm-3 (VCM),,,,,,,,,,,,,,,
15-01-2010,11:00,20,R,ugm-3 (VCM),,,,,,,,,,,,,,,
15-01-2010,12:00,17,R,ugm-3 (VCM),,,,,,,,,,,,,,,
15-01-2010,13:00,22,R,ugm-3 (VCM),,,,,,,,,,,,,,,
15-01-2010,14:00,28,R,ugm-3 (VCM),,,,,,,,,,,,,,,
15-01-2010,15:00,26,R,ugm-3 (VCM),,,,,,,,,,,,,,,
15-01-2010,16:00,26,R,ugm-3 (VCM),,,,,,,,,,,,,,,
15-01-2010,17:00,27,R,ugm-3 (VCM),,,,,,,,,,,,,,,
15-01-2010,18:00,27,R,ugm-3 (VCM),,,,,,,,,,,,,,,
15-01-2010,19:00,29,R,ugm-3 (VCM),,,,,,,,,,,,,,,
15-01-2010,20:00,34,R,ugm-3 (VCM),,,,,,,,,,,,,,,
15-01-2010,21:00,34,R,ugm-3 (VCM),,,,,,,,,,,,,,,
15-01-2010,22:00,20,R,ugm-3 (VCM),,,,,,,,,,,,,,,
15-01-2010,23:00,13,R,ugm-3 (VCM),,,,,,,,,,,,,,,
15-01-2010,24:00,16,R,ugm-3 (VCM),,,,,,,,,,,,,,,
16-01-2010,01:00,14,R,ugm-3 (VCM),,,,,,,,,,,,,,,
16-01-2010,02:00,15,R,ugm-3 (VCM),,,,,,,,,,,,,,,
16-01-2010,03:00,11,R,ugm-3 (VCM),,,,,,,,,,,,,,,
16-01-2010,04:00,14,R,ugm-3 (VCM),,,,,,,,,,,,,,,
16-01-2010,05:00,16,R,ugm-3 (VCM),,,,,,,,,,,,,,,
16-01-2010,06:00,17,R,ugm-3 (VCM),,,,,,,,,,,,,,,
16-01-2010,07:00,22,R,ugm-3 (VCM),,,,,,,,,,,,,,,
16-01-2010,08:00,23,R,ugm-3 (VCM),,,,,,,,,,,,,,,
16-01-2010,09:00,24,R,ugm-3 (VCM),,,,,,,,,,,,,,,
16-01-2010,10:00,29,R,ugm-3 (VCM),,,,,,,,,,,,,,,
16-01-2010,11:00,33,R,ugm-3 (VCM),,,,,,,,,,,,,,,
16-01-2010,12:00,35,R,ugm-3 (VCM),,,,,,,,,,,,,,,
16-01-2010,13:00,39,R,ugm-3 (VCM),,,,,,,,,,,,,,,
16-01-2010,14:00,31,R,ugm-3 (VCM),,,,,,,,,,,,,,,
16-01-2010,15:00,43,R,ugm-3 (VCM),,,,,,,,,,,,,,,
16-01-2010,16:00,50,R,ugm-3 (VCM),,,,,,,,,,,,,,,
16-01-2010,17:00,44,R,ugm-3 (VCM),,,,,,,,,,,,,,,
16-01-2010,18:00,45,R,ugm-3 (VCM),,,,,,,,,,,,,,,
16-01-2010,19:00,38,R,ugm-3 (VCM),,,,,,,,,,,,,,,
16-01-2010,20:00,32,R,ugm-3 (VCM),,,,,,,,,,,,,,,
16-01-2010,21:00,34,R,ugm-3 (VCM),,,,,,,,,,,,,,,
16-01-2010,22:00,29,R,ugm-3 (VCM),,,,,,,,,,,,,,,
16-01-2010,23:00,23,R,ugm-3 (VCM),,,,,,,,,,,,,,,
16-01-2010,24:00,23,R,ugm-3 (VCM),,,,,,,,,,,,,,,
17-01-2010,01:00,19,R,ugm-3 (VCM),,,,,,,,,,,,,,,
17-01-2010,02:00,17,R,ugm-3 (VCM),,,,,,,,,,,,,,,
17-01-2010,03:00,16,R,ugm-3 (VCM),,,,,,,,,,,,,,,
17-01-2010,04:00,14,R,ugm-3 (VCM),,,,,,,,,,,,,,,
17-01-2010,05:00,16,R,ugm-3 (VCM),,,,,,,,,,,,,,,
17-01-2010,06:00,17,R,ugm-3 (VCM),,,,,,,,,,,,,,,
17-01-2010,07:00,12,R,ugm-3 (VCM),,,,,,,,,,,,,,,
17-01-2010,08:00,12,R,ugm-3 (VCM),,,,,,,,,,,,,,,
17-01-2010,09:00,11,R,ugm-3 (VCM),,,,,,,,,,,,,,,
17-01-2010,10:00,17,R,ugm-3 (VCM),,,,,,,,,,,,,,,
17-01-2010,11:00,25,R,ugm-3 (VCM),,,,,,,,,,,,,,,
17-01-2010,12:00,18,R,ugm-3 (VCM),,,,,,,,,,,,,,,
17-01-2010,13:00,24,R,ugm-3 (VCM),,,,,,,,,,,,,,,
17-01-2010,14:00,29,R,ugm-3 (VCM),,,,,,,,,,,,,,,
17-01-2010,15:00,34,R,ugm-3 (VCM),,,,,,,,,,,,,,,
17-01-2010,16:00,38,R,ugm-3 (VCM),,,,,,,,,,,,,,,
17-01-2010,17:00,32,R,ugm-3 (VCM),,,,,,,,,,,,,,,
17-01-2010,18:00,31,R,ugm-3 (VCM),,,,,,,,,,,,,,,
17-01-2010,19:00,22,R,ugm-3 (VCM),,,,,,,,,,,,,,,
17-01-2010,20:00,28,R,ugm-3 (VCM),,,,,,,,,,,,,,,
17-01-2010,21:00,29,R,ugm-3 (VCM),,,,,,,,,,,,,,,
17-01-2010,22:00,25,R,ugm-3 (VCM),,,,,,,,,,,,,,,
17-01-2010,23:00,25,R,ugm-3 (VCM),,,,,,,,,,,,,,,
17-01-2010,24:00,24,R,ugm-3 (VCM),,,,,,,,,,,,,,,
18-01-2010,01:00,21,R,ugm-3 (VCM),,,,,,,,,,,,,,,
18-01-2010,02:00,21,R,ugm-3 (VCM),,,,,,,,,,,,,,,
18-01-2010,03:00,21,R,ugm-3 (VCM),,,,,,,,,,,,,,,
18-01-2010,04:00,21,R,ugm-3 (VCM),,,,,,,,,,,,,,,
18-01-2010,05:00,19,R,ugm-3 (VCM),,,,,,,,,,,,,,,
18-01-2010,06:00,13,R,ugm-3 (VCM),,,,,,,,,,,,,,,
18-01-2010,07:00,10,R,ugm-3 (VCM),,,,,,,,,,,,,,,
18-01-2010,08:00,20,R,ugm-3 (VCM),,,,,,,,,,,,,,,
18-01-2010,09:00,36,R,ugm-3 (VCM),,,,,,,,,,,,,,,
18-01-2010,10:00,28,R,ugm-3 (VCM),,,,,,,,,,,,,,,
18-01-2010,11:00,30,R,ugm-3 (VCM),,,,,,,,,,,,,,,
18-01-2010,12:00,40,R,ugm-3 (VCM),,,,,,,,,,,,,,,
18-01-2010,13:00,27,R,ugm-3 (VCM),,,,,,,,,,,,,,,
18-01-2010,14:00,13,R,ugm-3 (VCM),,,,,,,,,,,,,,,
18-01-2010,15:00,28,R,ugm-3 (VCM),,,,,,,,,,,,,,,
18-01-2010,16:00,44,R,ugm-3 (VCM),,,,,,,,,,,,,,,
18-01-2010,17:00,40,R,ugm-3 (VCM),,,,,,,,,,,,,,,
18-01-2010,18:00,37,R,ugm-3 (VCM),,,,,,,,,,,,,,,
18-01-2010,19:00,34,R,ugm-3 (VCM),,,,,,,,,,,,,,,
18-01-2010,20:00,31,R,ugm-3 (VCM),,,,,,,,,,,,,,,
18-01-2010,21:00,32,R,ugm-3 (VCM),,,,,,,,,,,,,,,
18-01-2010,22:00,30,R,ugm-3 (VCM),,,,,,,,,,,,,,,
18-01-2010,23:00,37,R,ugm-3 (VCM),,,,,,,,,,,,,,,
18-01-2010,24:00,38,R,ugm-3 (VCM),,,,,,,,,,,,,,,
19-01-2010,01:00,26,R,ugm-3 (VCM),,,,,,,,,,,,,,,
19-01-2010,02:00,24,R,ugm-3 (VCM),,,,,,,,,,,,,,,
19-01-2010,03:00,18,R,ugm-3 (VCM),,,,,,,,,,,,,,,
19-01-2010,04:00,17,R,ugm-3 (VCM),,,,,,,,,,,,,,,
19-01-2010,05:00,16,R,ugm-3 (VCM),,,,,,,,,,,,,,,
19-01-2010,06:00,19,R,ugm-3 (VCM),,,,,,,,,,,,,,,
19-01-2010,07:00,16,R,ugm-3 (VCM),,,,,,,,,,,,,,,
19-01-2010,08:00,19,R,ugm-3 (VCM),,,,,,,,,,,,,,,
19-01-2010,09:00,23,R,ugm-3 (VCM),,,,,,,,,,,,,,,
19-01-2010,10:00,22,R,ugm-3 (VCM),,,,,,,,,,,,,,,
19-01-2010,11:00,24,R,ugm-3 (VCM),,,,,,,,,,,,,,,
19-01-2010,12:00,23,R,ugm-3 (VCM),,,,,,,,,,,,,,,
19-01-2010,13:00,25,R,ugm-3 (VCM),,,,,,,,,,,,,,,
19-01-2010,14:00,25,R,ugm-3 (VCM),,,,,,,,,,,,,,,
19-01-2010,15:00,28,R,ugm-3 (VCM),,,,,,,,,,,,,,,
19-01-2010,16:00,26,R,ugm-3 (VCM),,,,,,,,,,,,,,,
19-01-2010,17:00,25,R,ugm-3 (VCM),,,,,,,,,,,,,,,
19-01-2010,18:00,24,R,ugm-3 (VCM),,,,,,,,,,,,,,,
19-01-2010,19:00,22,R,ugm-3 (VCM),,,,,,,,,,,,,,,
19-01-2010,20:00,20,R,ugm-3 (VCM),,,,,,,,,,,,,,,
19-01-2010,21:00,25,R,ugm-3 (VCM),,,,,,,,,,,,,,,
19-01-2010,22:00,24,R,ugm-3 (VCM),,,,,,,,,,,,,,,
19-01-2010,23:00,25,R,ugm-3 (VCM),,,,,,,,,,,,,,,
19-01-2010,24:00,25,R,ugm-3 (VCM),,,,,,,,,,,,,,,
20-01-2010,01:00,17,R,ugm-3 (VCM),,,,,,,,,,,,,,,
20-01-2010,02:00,12,R,ugm-3 (VCM),,,,,,,,,,,,,,,
20-01-2010,03:00,12,R,ugm-3 (VCM),,,,,,,,,,,,,,,
20-01-2010,04:00,8,R,ugm-3 (VCM),,,,,,,,,,,,,,,
20-01-2010,05:00,10,R,ugm-3 (VCM),,,,,,,,,,,,,,,
20-01-2010,06:00,11,R,ugm-3 (VCM),,,,,,,,,,,,,,,
20-01-2010,07:00,13,R,ugm-3 (VCM),,,,,,,,,,,,,,,
20-01-2010,08:00,19,R,ugm-3 (VCM),,,,,,,,,,,,,,,
20-01-2010,09:00,18,R,ugm-3 (VCM),,,,,,,,,,,,,,,
20-01-2010,10:00,41,R,ugm-3 (VCM),,,,,,,,,,,,,,,
20-01-2010,11:00,24,R,ugm-3 (VCM),,,,,,,,,,,,,,,
20-01-2010,12:00,23,R,ugm-3 (VCM),,,,,,,,,,,,,,,
20-01-2010,13:00,23,R,ugm-3 (VCM),,,,,,,,,,,,,,,
20-01-2010,14:00,37,R,ugm-3 (VCM),,,,,,,,,,,,,,,
20-01-2010,15:00,34,R,ugm-3 (VCM),,,,,,,,,,,,,,,
20-01-2010,16:00,26,R,ugm-3 (VCM),,,,,,,,,,,,,,,
20-01-2010,17:00,19,R,ugm-3 (VCM),,,,,,,,,,,,,,,
20-01-2010,18:00,21,R,ugm-3 (VCM),,,,,,,,,,,,,,,
20-01-2010,19:00,20,R,ugm-3 (VCM),,,,,,,,,,,,,,,
20-01-2010,20:00,21,R,ugm-3 (VCM),,,,,,,,,,,,,,,
20-01-2010,21:00,29,R,ugm-3 (VCM),,,,,,,,,,,,,,,
20-01-2010,22:00,27,R,ugm-3 (VCM),,,,,,,,,,,,,,,
20-01-2010,23:00,23,R,ugm-3 (VCM),,,,,,,,,,,,,,,